This is the latest recevied weather packets stored in our database for station/object KG4LKY-5. If no packets are shown the sender has not sent any weather packets the latest 10 day(s).
| Time | Temp. | Humidity | Pressure | Rain* | Wind** | Luminosity | Snow |
|---|---|---|---|---|---|---|---|
| 1777799313 | -0.56° C | 100% | 1020.9 hPa | 0 mm | - | - | - |
| 1777799013 | -1.11° C | 100% | 1020.9 hPa | 0 mm | - | - | - |
| 1777798713 | 0° C | 100% | 1020.8 hPa | 0 mm | - | - | - |
| 1777798413 | -0.56° C | 100% | 1020.8 hPa | 0 mm | - | - | - |
| 1777798112 | 0° C | 100% | 1020.8 hPa | 0 mm | - | - | - |
| 1777797812 | 0° C | 100% | 1020.8 hPa | 0 mm | - | - | - |
| 1777797512 | 0° C | 100% | 1020.8 hPa | 0 mm | - | - | - |
| 1777797212 | -0.56° C | 100% | 1020.7 hPa | 0 mm | - | - | - |
| 1777796911 | 0° C | 100% | 1020.8 hPa | 0 mm | - | - | - |
| 1777796611 | -0.56° C | 100% | 1020.8 hPa | 0 mm | - | - | - |
| 1777796311 | 0.56° C | 100% | 1020.7 hPa | 0 mm | - | - | - |
| 1777796011 | -0.56° C | 100% | 1020.7 hPa | 0 mm | - | - | - |
| 1777795710 | 0.56° C | 100% | 1020.7 hPa | 0 mm | - | - | - |
| 1777795410 | 0.56° C | 100% | 1020.5 hPa | 0 mm | - | - | - |
| 1777794810 | 0.56° C | 100% | 1020.5 hPa | 0 mm | - | - | - |
| 1777794509 | 0° C | 100% | 1020.4 hPa | 0 mm | - | - | - |
| 1777794209 | 0.56° C | 100% | 1020.2 hPa | 0 mm | - | - | - |
| 1777793608 | 1.11° C | 100% | 1020.1 hPa | 0 mm | - | - | - |
| 1777793308 | 0.56° C | 100% | 1020 hPa | 0 mm | - | - | - |
| 1777793007 | 1.11° C | 100% | 1020 hPa | 0 mm | - | - | - |
| 1777792707 | 0.56° C | 100% | 1019.9 hPa | 0 mm | - | - | - |
| 1777792107 | 0.56° C | 100% | 1019.9 hPa | 0 mm | - | - | - |
| 1777791504 | 1.11° C | 100% | 1019.8 hPa | 0 mm | - | - | - |
| 1777790904 | 1.67° C | 100% | 1019.7 hPa | 0 mm | - | - | - |
| 1777790604 | 1.11° C | 100% | 1019.7 hPa | 0 mm | - | - | - |
* Rain since midnight (hover to see other rain measurements)
** Current wind speed in m/s (hover to see current wind gust speed)